This demonstration page uses our WeatherBlox Daily Observations layout. Learn more.

38.89511, -77.03637

Hourly Observations for October 17, 2018

Temp ( °F °C ) Dew Point ( °F °C ) Humidity (%) Winds ( mph kmh ) Pressure ( in mb ) Visibility ( mi km ) Precip ( " mm )
1:48 am 01:48 Cloudy 57 14 48 9 72 72 SW 5 7 30.09 1019 10 16.0934 0 0
1:52 am 01:52 Cloudy 57 13.9 49 9.4 74 74 SW 5 7 30.09 1019 10 16.0934 0 0
2:52 am 02:52 Cloudy 57 13.9 49 9.4 74 74 SW 5 7 30.07 1018 10 16.0934 0 0
3:52 am 03:52 Cloudy 57 13.9 50 10 78 78 SW 3 6 30.06 1018 10 16.0934 0 0
4:52 am 04:52 Cloudy 56 13.3 50 10 81 81 N 7 11 30.07 1018 10 16.0934 0 0
5:05 am 05:05 Mostly Cloudy 56 13.3 49 9.4 77 77 NNW 5 7 30.09 1019 10 16.0934 0 0
5:52 am 05:52 Mostly Cloudy 54 12.2 48 8.9 80 80 NNW 6 9 30.09 1019 10 16.0934 0 0
6:52 am 06:52 Mostly Cloudy 54 12.2 43 6.1 67 67 NNW 9 15 30.09 1019 10 16.0934 0 0
7:52 am 07:52 Mostly Cloudy 54 12.2 40 4.4 59 59 WNW 8 13 30.08 1019 10 16.0934 0 0
8:52 am 08:52 Mostly Cloudy 56 13.3 39 3.9 53 53 NW 6 9 30.1 1019 10 16.0934 0 0
9:52 am 09:52 Mostly Cloudy 60 15.6 36 2.2 41 41 WNW 8 13 30.1 1019 10 16.0934 0 0
10:52 am 10:52 Mostly Cloudy 63 17.2 32 0 31 31 W 13 20 30.1 1019 10 16.0934 0 0
11:52 am 11:52 Mostly Cloudy 64 17.8 35 1.7 34 34 W 15 24 30.09 1019 10 16.0934 0 0
12:52 pm 12:52 Partly Cloudy 66 18.9 35 1.7 32 32 WSW 14 22 30.06 1018 10 16.0934 0 0
1:52 pm 13:52 Partly Cloudy 68 20 35 1.7 30 30 WNW 16 26 30.04 1017 10 16.0934 0 0
2:52 pm 14:52 Partly Cloudy 69 20.6 37 2.8 31 31 WNW 12 19 30.01 1016 10 16.0934 0 0
3:52 pm 15:52 Mostly Sunny 69 20.6 38 3.3 32 32 WNW 17 28 30.01 1016 10 16.0934 0 0
4:52 pm 16:52 Mostly Sunny 68 20 36 2.2 31 31 WNW 17 28 30.03 1017 10 16.0934 0 0
5:52 pm 17:52 Mostly Sunny 66 18.9 35 1.7 32 32 WNW 13 20 30.05 1018 10 16.0934 0 0
6:52 pm 18:52 Mostly Clear 64 17.8 34 1.1 33 33 NW 10 17 30.09 1019 10 16.0934 0 0
7:52 pm 19:52 Clear 62 16.7 34 1.1 35 35 W 12 19 30.12 1020 10 16.0934 0 0
8:52 pm 20:52 Mostly Clear 61 16.1 35 1.7 38 38 W 7 11 30.14 1021 10 16.0934 0 0
9:52 pm 21:52 Partly Cloudy 59 15 36 2.2 42 42 W 7 11 30.17 1022 10 16.0934 0 0
10:52 pm 22:52 Mostly Cloudy 59 15 36 2.2 42 42 VRB 5 7 30.19 1023 10 16.0934 0 0
11:52 pm 23:52 Mostly Cloudy 57 13.9 36 2.2 45 45 NW 7 11 30.22 1024 10 16.0934 0 0

Powered by AerisWeather